Tracking 27097 objects as of 29-Mar-2023
HD Live streaming from Space Station
objects crossing your sky now

DELTA 1 DEB

Track DELTA 1 DEB now!
10-day predictions


NORAD ID: 42085
Int'l Code: 1968-114M
Perigee: 1,252.6 km
Apogee: 1,416.3 km
Inclination: 101.0 °
Period: 112.2 minutes
Semi major axis: 7705 km
RCS: Unknown
Launch date: December 15, 1968
Source: United States (US)
Launch site: AIR FORCE WESTERN TEST RANGE (AFWTR)

Note: This is SATELLITE DEBRIS
Your satellite tracking list
Your tracking list is empty




NASA's NSSDC Master Catalog

Two Line Element Set (TLE):
1 42085U 68114M   23086.06545437  .00000442  00000-0  19890-2 0  9991
2 42085 100.9642 159.7645 0106221 329.8194 147.7935 12.83533521437944
Source of the keplerian elements: AFSPC